Home   Weather   Haldimand   Past weeks

Flag for Canada Past Weather in Haldimand, Ontario, Canada — Yesterday and Last 2 Weeks

50 °F

Mostly cloudy.

Feels Like: 45 °F
Forecast: 45 / 53 °F
Wind: 14 mph from Northeast

Location: Hamilton Airport

Current Time: Oct 21, 2016 at 7:20:58 AM

Latest Report: Oct 21, 2016 at 6:00 AM

Visibility: 15 mi

Pressure: 29.87 "Hg

Humidity: 94%

Dew Point: 48 °F

Location of HaldimandLocation

Past Weather in Haldimand — Graph


Haldimand Temperature Yesterday

Maximum temperature yesterday: 57 °F (at 6:00 AM)
Minimum temperature yesterday: 52 °F (at 7:00 PM)
Average temperature yesterday: 54 °F

High & Low Weather Summary for the Past Weeks

High75 °F (Oct 6, 2:00 PM)100% (Oct 6, 11:00 PM)30.50 "Hg (Oct 6, 11:00 PM)
Low34 °F (Oct 10, 6:00 AM)41% (Oct 10, 3:00 PM)29.59 "Hg (Oct 18, 2:00 PM)
Average57 °F78%30.11 "Hg
* Reported Oct 6 6:00 AM — Oct 21 6:00 AM, Haldimand, Weather by CustomWeather, © 2016

Note: Actual official high and low records may vary slightly from our data, if they occured in-between our weather recording intervals... More about our weather records


Haldimand Weather History for the Previous 24 Hours

Scroll right to see more
Time TempWeatherWind HumidityBarometerVisibility
6:00 AM
Fri, Oct 21
50 °FMostly cloudy.14 mph94%29.87 "Hg15 mi
5:00 AM50 °FMostly cloudy.12 mph94%29.90 "Hg15 mi
4:00 AM50 °FLight rain. Low clouds.15 mph94%29.90 "Hg15 mi
3:00 AM52 °FLight rain. Mostly cloudy.13 mph94%29.93 "Hg15 mi
2:00 AM52 °FLight rain. Overcast.9 mph88%29.94 "Hg15 mi
1:00 AM52 °FLight rain. Overcast.10 mph94%29.94 "Hg15 mi
12:00 AM52 °FMostly cloudy.10 mph94%29.96 "Hg15 mi
11:00 PM
Thu, Oct 20
52 °FMostly cloudy.12 mph94%29.96 "Hg15 mi
10:00 PM52 °FMostly cloudy.15 mph94%29.97 "Hg10 mi
9:00 PM52 °FFog.13 mph94%29.97 "Hg4 mi
8:52 PM52 °FFog.13 mph94%29.98 "Hg4 mi
8:00 PM52 °FLight rain. Fog.12 mph94%29.99 "Hg2 mi
7:00 PM52 °FLight rain. Fog.13 mph100%29.99 "Hg3 mi
6:00 PM54 °FLight rain. Fog.15 mph94%29.99 "Hg2 mi
5:00 PM54 °FLight rain. Fog.14 mph94%29.98 "Hg1 mi
4:00 PM54 °FLight rain. Fog.14 mph100%30.00 "Hg1 mi
3:00 PM54 °FLight rain. Fog.17 mph94%30.00 "Hg1 mi
2:00 PM54 °FLight rain. Fog.17 mph94%30.02 "Hg4 mi
1:00 PM54 °FLight rain. Fog.15 mph94%30.03 "Hg4 mi
12:00 PM54 °FLight rain. Fog.15 mph94%30.06 "Hg6 mi
11:00 AM54 °FLight rain. Cloudy.17 mph82%30.07 "Hg8 mi
10:00 AM54 °FMore clouds than sun.15 mph88%30.08 "Hg15 mi
9:00 AM55 °FLight rain. Mostly cloudy.15 mph88%30.08 "Hg15 mi
8:00 AM55 °FLight rain. Cloudy.13 mph100%30.09 "Hg12 mi
7:00 AM55 °FLight rain. Mostly cloudy.9 mph94%30.12 "Hg8 mi
Weather by CustomWeather, © 2016

See weather overviewHow to use our weather pages